Location: Fayetteville
(35.0530°N, 78.8790°W)
Time: 03:09:09
(UTC-04:00)

ISS - Visible Passes

Search period start: 30 April 2017 00:00
Search period end: 10 May 2017 00:00
Orbit: 401 x 409 km, 51.6° (Epoch: 01 May)

Date Brightness Start Highest point End Pass type
(mag) Time Alt. Az. Time Alt. Az. Time Alt. Az.
03 May -3.4 05:52:33 10° SW 05:55:46 61° SE 05:59:00 10° NE visible
04 May -2.2 05:02:03 17° S 05:03:46 27° SE 05:06:37 10° ENE visible
05 May -1.1 04:12:11 13° ESE 04:12:11 13° ESE 04:13:32 10° E visible
05 May -3.2 05:44:52 10° WSW 05:48:02 45° NW 05:51:11 10° NE visible
06 May -3.9 04:54:54 42° SW 04:55:53 83° SE 04:59:10 10° NE visible
07 May -2.0 04:04:52 28° E 04:04:52 28° E 04:06:53 10° ENE visible
07 May -1.9 05:37:53 10° W 05:40:24 20° NNW 05:42:55 10° NNE visible
08 May -2.8 04:47:24 31° WNW 04:48:07 35° NW 04:51:10 10° NNE visible
09 May -2.1 03:57:11 34° NE 03:57:11 34° NE 03:59:11 10° NE visible
09 May -1.1 05:31:52 10° NW 05:32:53 11° NNW 05:33:54 10° N visible
